Tracking 17694 objects as of 27-May-2016
HD Live streaming from Space Station
objects crossing your sky now

COSMOS 2251 DEB

Track COSMOS 2251 DEB now!
10-day predictions


NORAD ID: 35451
Int'l Code: 1993-036AKV
Perigee: 568.1 km
Apogee: 722.5 km
Inclination: 73.9 °
Period: 97.5 minutes
Semi major axis: 7016 km
RCS: 0.0039 m2 (small)
Launch date: June 16, 1993
Source: Commonwealth of Independent States (former USSR) (CIS)
Launch site: PLESETSK MISSILE AND SPACE COMPLEX (PKMTR)

Note: This is SATELLITE DEBRIS
Your satellite tracking list
Your tracking list is empty





NASA's NSSDC Master Catalog

Two Line Element Set (TLE):
1 35451U 93036AKV 16142.96219234 +.00001399 +00000-0 +18379-3 0  9992
2 35451 073.9473 246.3839 0110449 241.6365 117.3639 14.77199828155416
Source of the keplerian elements: AFSPC

N2YO: 693